Location: Ambatotampy
(18.8181°S, 47.6186°E)
Time: 00:14:33
(UTC+00:00)

ADEOS Rocket - Pass Details

Date: 21 January 2021
Orbit: 858 x 1307 km, 98.7° (Epoch: 24 February)

Event Time Altitude Azimuth Distance (km) Brightness Sun altitude
Rises 01:38:26 0° 181° (S) 4,161 6.6 -11.7°
Reaches altitude 10° 01:41:14 10° 188° (S) 3,238 5.9 -11.1°
Maximum altitude 01:48:05 39° 253° (WSW) 1,855 4.1 -9.7°
Drops below altitude 10° 01:55:07 10° 318° (NW) 3,317 5.2 -8.2°
Enters shadow 01:57:00 - 323° (NW) 3,927 5.6 -7.8°
